Location: Piotrkow Trybunalski
(51.4000°N, 19.6830°E)
Time: 02:30:52
(UTC+02:00)

STRAND 1 - Pass Details

Date: 08 April 2023
Orbit: 767 x 779 km, 98.4° (Epoch: 06 June)

Event Time Altitude Azimuth Distance (km) Brightness Sun altitude
Rises 21:28:40 0° 4° (N) 3,252 ? -18.0°
Reaches altitude 10° 21:31:43 10° 345° (NNW) 2,320 ? -18.4°
Maximum altitude 21:34:54 17° 307° (NW) 1,878 ? -18.8°
Drops below altitude 10° 21:38:04 10° 268° (W) 2,312 ? -19.1°
Sets 21:41:07 0° 248° (WSW) 3,235 ? -19.5°
